Regional Weather Roundup
Issued by NWS Sterling, VA

Home | Current Version | Previous Version | Graphics & Text | Print | Product List | Glossary On
Versions: 1 2 3 4 5 6 7 8 9 10 11 12 13 14 15 16 17 18 19 20 21 22 23 24 25 26 27 28 29 30 31 32 33 34 35 36 37 38 39 40 41 42 43 44 45 46 47 48 49 50
000
ASUS41 KLWX 292110
RWRLWX

REGIONAL WEATHER ROUNDUP
NATIONAL WEATHER SERVICE BALTIMORE MD/WASHINGTON DC
500 PM EDT TUE JUL 29 2014

Note: "FAIR" indicates few or no clouds below 12,000 feet
with no significant weather and/or obstructions to visibility.
 TC=TEMPERATURE CELSIUS

 * =Non NWS site. Station does not report precipitation (e.g. rain,
    snow, etc.), thunder, or fog.

DCZ001-MDZ009-015-VAZ040>042-051-053>054-292200-
WASHINGTON METRO
  /KDAA//-FT BELVOIR

CITY           SKY/WX    TMP DP  RH WIND       PRES   REMARKS
WASHINGTON NAT PTSUNNY   78  47  33 W12       29.95S
DULLES         PTSUNNY   72  43  35 NW13G22   29.96S
ANDREWS AFB    SUNNY     74  48  39 NW13      29.95R
QUANTICO       MOSUNNY   77  51  40 NW8       29.96R
COLLEGE PARK*  MOSUNNY   73  50  43 NW7       29.94S
LEESBURG*      MOSUNNY   73  50  43 N13G21    29.98R
MANASSAS*      SUNNY     75  48  38 N13G18    29.96R
GAITHERSBURG*  MOSUNNY   72  54  53 NW8       29.99S

$$

MDZ006>007-011-014-292200-
BALTIMORE METRO

CITY           SKY/WX    TMP DP  RH WIND       PRES   REMARKS
BWI AIRPORT    MOSUNNY   75  50  41 NW10      29.93S
MD SCIENCE CTR   N/A     74  51  44 MISG      29.94R
MARTIN STATE   PTSUNNY   73  57  56 CALM      29.94S
ANNAPOLIS      SUNNY     74  51  44 NW10      29.94R
FORT MEADE*    MOSUNNY   72  52  49 W9        29.96S

$$

MDZ012-015-019>023-292200-
MARYLAND EASTERN SHORE

CITY           SKY/WX    TMP DP  RH WIND       PRES   REMARKS
OCEAN CITY     SUNNY     74  61  63 VRB6      29.93S
SALISBURY      NOT AVBL
BAY BRIDGE AP*   N/A     73  48  40 NW8       29.94S
CAMBRIDGE*     SUNNY     77  52  41 NW6       29.94R
EASTON*        MOSUNNY   75  54  46 NW9       29.98S

$$

MDZ017>025-292200-
SOUTHERN MARYLAND

CITY           SKY/WX    TMP DP  RH WIND       PRES   REMARKS
PATUXENT RIVER MOSUNNY   77  50  38 W12       29.94R
ST INIGOES     PTSUNNY   74  52  46 W5        29.93S
LEONARDTOWN*   MOSUNNY   73  50  43 W7        29.96S

$$

MDZ003>005-292200-
NORTH CENTRAL MARYLAND

CITY           SKY/WX    TMP DP  RH WIND       PRES   REMARKS
FREDERICK*     MOSUNNY   73  55  53 W8        29.99R
HAGERSTOWN APT CLOUDY    69  47  45 NW13      29.97R
WESTMINSTER*   PTSUNNY   72  55  56 W7        29.96R

$$

MDZ501>502-292200-
WESTERN MARYLAND

CITY           SKY/WX    TMP DP  RH WIND       PRES   REMARKS
OAKLAND*       CLOUDY    55  46  71 NW7       30.06R
CUMBERLAND*    PTSUNNY   70  46  43 W5        30.04R

$$

VAZ025>031-292200-
SHENANDOAH VALLEY

CITY           SKY/WX    TMP DP  RH WIND       PRES   REMARKS
WINCHESTER*    MOSUNNY   70  46  43 NW7       29.99R
STAUNTON*      PTSUNNY   73  46  37 CALM      29.98S

$$

WVZ021-048>050-054>055-292200-
EASTERN WEST VIRGINIA PANHANDLE

CITY           SKY/WX    TMP DP  RH WIND       PRES   REMARKS
MARTINSBURG    CLOUDY    70  44  39 NW13      29.99R
PETERSBURG*    PTSUNNY   69  44  40 NW8G16    30.01R

$$

VAZ036>039-050-292200-
CENTRAL FOOTHILLS

CITY           SKY/WX    TMP DP  RH WIND       PRES   REMARKS
CHARLOTTESVILL PTSUNNY   77  54  44 N7        29.95R
ORANGE*        PTSUNNY   73  52  46 NW5       29.97R

$$

VAZ055>057-292200-
NORTH AND CENTRAL PIEDMONT

CITY           SKY/WX    TMP DP  RH WIND       PRES   REMARKS
FREDERICKSBRG* MOSUNNY   77  54  43 CALM      29.94R
STAFFORD*      CLOUDY    75  53  46 CALM      29.99R

$$

NCZ024-NYZ072-PAZ021-071-VAZ022-071-292200-
OTHER REGIONAL OBSERVATIONS

CITY           SKY/WX    TMP DP  RH WIND       PRES   REMARKS
NEW YORK CITY  PTSUNNY   74  49  41 MISG      29.93R
PHILADELPHIA   CLOUDY    75  53  46 W8        29.92S
PITTSBURGH     CLOUDY    67  50  54 CALM      30.01S
ROANOKE        PTSUNNY   77  50  38 NW7       29.97R
RICHMOND       PTSUNNY   79  52  38 NW12      29.94R
RALEIGH        MOSUNNY   81  57  43 CALM      29.94S

$$

ANZ530>537-292200-
MARINE OBSERVATIONS

STATION/POSITION TIME  TEMP    WIND        PRES
                       AIR SEA DIR/SP/G
                 (UTC) (F)     (DEG/KT/KT) (MB)
THOMAS PT LIGHT  2100   72 78  290/  9/ 11 1014.3R
BALT KEY BRIDGE  2100   73     280/  9/ 11 1013.3R
COVE POINT       2100   73     330/  8/ 11 1013.6S
LEWISETTA        2100   75 77  340/  8/ 13 1013.5S
SOLOMONS ISLAND  2100      80                N/A
PINEY POINT      2100          340/ 16/ 19   N/A

$$



USA.gov is the U.S. government's official web portal to all federal, state and local government web resources and services.